ENSH

Details ICAO ENSH (SVJ)
Name Svolvaer Helle
Region Norway
Timezone Unknown (UTC+0.0)
Plans Departing 20
Arriving 18
Stats Elevation 27 ft / 8 m (AMSL)
Location 68.242598° 14.668558°
Runways 1
Magnetic Variation 6.142° E
Sunrise Unknown / Unknown
Sunset Unknown / Unknown
Advertisement - Login to hide

Runways

ID Width Length Bearing (true) Bearing (mag) Surface Threshold Offset Overrun Length
01 98 ft / 30 m 3,097 ft / 944 m 192.17° 186.03° Asphalt 230 ft / 70 m 0 ft / 0 m
19 98 ft / 30 m 3,097 ft / 944 m 12.17° 6.03° Asphalt 230 ft / 70 m 0 ft / 0 m

Map

Weather


0- 5 10 15 20 25 30 35+ Temperature / ° C

Clouds and Precipitation
Forecast for 2018-05-25 06:00 UTC. Updated 3 hours ago

Ground ~20,000 ft ~40,000 ft Winds

METAR

ENSH 250650Z 20018KT 9999 9000S VCSH SCT008 BKN023 08/06 Q1024 RMK WIND 150FT 19019KT

TAF

Not found
Warning: Do not use this data for real-world aviation or navigation. No guarantee of current accuracy is given.